• In Uzbekistan
  • List of Countries
  • For 7 days
  • Water Temperature
  • Satellite Maps
  • Weather Map
  • Weather Widgets
  • user-avatar
    Login

    Hourly Weather Lohne

    Today, 25 November, Saturday

    Time Temperature Precipitation Wind Pressure Humidity
    00:00 +5°C° 0 mm 1 mps 755 mmHg 91%
    01:00 +6°C° 0 mm 1 mps 755 mmHg 90%
    02:00 +6°C° 0.1 mm 1 mps 754 mmHg 90%
    03:00 +5°C° 0.1 mm 0 mps 754 mmHg 90%
    04:00 +4°C° 0.1 mm 0 mps 754 mmHg 89%
    05:00 +4°C° 0.1 mm 0 mps 753 mmHg 89%
    06:00 +4°C° 0.1 mm 0 mps 753 mmHg 89%
    07:00 +5°C° 0.1 mm 1 mps 753 mmHg 89%
    08:00 +5°C° 0 mm 1 mps 753 mmHg 87%
    09:00 +5°C° 0 mm 1 mps 753 mmHg 86%
    10:00 +6°C° 0 mm 1 mps 753 mmHg 85%
    11:00 +5°C° 0 mm 2 mps 753 mmHg 80%
    12:00 +5°C° 0 mm 3 mps 754 mmHg 75%
    13:00 +7°C° 0 mm 3 mps 754 mmHg 70%
    14:00 +5°C° 0 mm 3 mps 754 mmHg 73%
    15:00 +5°C° 0 mm 3 mps 754 mmHg 76%
    16:00 +4°C° 0 mm 3 mps 754 mmHg 80%
    17:00 +4°C° 0 mm 3 mps 755 mmHg 82%
    18:00 +3°C° 0 mm 3 mps 755 mmHg 83%
    19:00 +3°C° 0 mm 3 mps 755 mmHg 85%
    20:00 +2°C° 0 mm 3 mps 756 mmHg 85%
    21:00 +2°C° 0 mm 3 mps 756 mmHg 85%
    22:00 +1°C° 0 mm 4 mps 757 mmHg 85%
    23:00 +1°C° 0 mm 4 mps 757 mmHg 85%

    Tomorrow, 26 November, Sunday

    Time Temperature Precipitation Wind Pressure Humidity
    00:00 0°C° 0 mm 4 mps 757 mmHg 84%
    01:00 0°C° 0 mm 5 mps 758 mmHg 84%
    02:00 0°C° 0 mm 5 mps 758 mmHg 84%
    03:00 0°C° 0 mm 5 mps 758 mmHg 84%
    04:00 0°C° 0 mm 5 mps 758 mmHg 84%
    05:00 -1°C° 0 mm 6 mps 758 mmHg 83%
    06:00 -1°C° 0 mm 6 mps 758 mmHg 82%
    07:00 +1°C° 0 mm 6 mps 758 mmHg 81%
    08:00 +1°C° 0 mm 6 mps 759 mmHg 80%
    09:00 0°C° 0 mm 7 mps 759 mmHg 79%
    10:00 +2°C° 0 mm 7 mps 759 mmHg 78%
    11:00 +3°C° 0 mm 7 mps 759 mmHg 75%
    12:00 +3°C° 0 mm 7 mps 759 mmHg 72%
    13:00 +4°C° 0 mm 7 mps 760 mmHg 69%
    14:00 +4°C° 0 mm 7 mps 760 mmHg 71%
    15:00 +3°C° 0 mm 6 mps 760 mmHg 73%
    16:00 +3°C° 0 mm 6 mps 760 mmHg 75%
    17:00 +3°C° 0 mm 6 mps 761 mmHg 77%
    18:00 +2°C° 0 mm 6 mps 761 mmHg 79%
    19:00 +2°C° 0 mm 6 mps 761 mmHg 81%
    20:00 +2°C° 0 mm 6 mps 762 mmHg 82%
    21:00 +1°C° 0 mm 6 mps 762 mmHg 83%
    22:00 +1°C° 0 mm 5 mps 762 mmHg 83%
    23:00 +1°C° 0 mm 6 mps 762 mmHg 83%

    Day after tomorrow, 27 November, Monday

    Time Temperature Precipitation Wind Pressure Humidity
    00:00 +1°C° 0 mm 6 mps 762 mmHg 83%
    01:00 +1°C° 0 mm 6 mps 762 mmHg 82%
    02:00 +1°C° 0 mm 5 mps 762 mmHg 83%
    03:00 +1°C° 0 mm 5 mps 762 mmHg 85%
    04:00 0°C° 0 mm 5 mps 762 mmHg 86%
    05:00 +1°C° 0 mm 5 mps 762 mmHg 86%
    06:00 +1°C° 0 mm 5 mps 762 mmHg 86%
    07:00 +1°C° 0 mm 5 mps 762 mmHg 86%
    08:00 +2°C° 0 mm 6 mps 762 mmHg 86%
    09:00 +2°C° 0 mm 6 mps 762 mmHg 85%
    10:00 +3°C° 0 mm 7 mps 761 mmHg 84%
    11:00 +3°C° 0 mm 7 mps 761 mmHg 81%
    12:00 +2°C° 0 mm 8 mps 760 mmHg 79%
    13:00 +4°C° 0 mm 8 mps 759 mmHg 76%
    14:00 +4°C° 0.5 mm 8 mps 758 mmHg 78%
    15:00 +3°C° 0.5 mm 9 mps 757 mmHg 80%
    16:00 +3°C° 0.5 mm 9 mps 756 mmHg 82%
    17:00 +4°C° 0.9 mm 8 mps 756 mmHg 84%
    18:00 +4°C° 0.9 mm 8 mps 755 mmHg 86%
    19:00 +4°C° 0.9 mm 7 mps 755 mmHg 88%
    20:00 +4°C° 0.4 mm 6 mps 755 mmHg 89%
    21:00 +5°C° 0.4 mm 5 mps 755 mmHg 89%
    22:00 +5°C° 0.4 mm 4 mps 755 mmHg 90%
    23:00 +4°C° 0.1 mm 4 mps 754 mmHg 90%

    28 November, Tuesday

    Time Temperature Precipitation Wind Pressure Humidity
    00:00 +4°C° 0.1 mm 4 mps 754 mmHg 90%
    01:00 +4°C° 0.1 mm 4 mps 754 mmHg 90%
    02:00 +4°C° 0.2 mm 4 mps 753 mmHg 91%
    03:00 +4°C° 0.2 mm 4 mps 753 mmHg 91%
    04:00 +4°C° 0.2 mm 4 mps 753 mmHg 91%
    05:00 +4°C° 0.2 mm 4 mps 752 mmHg 92%
    06:00 +4°C° 0.2 mm 4 mps 751 mmHg 93%
    07:00 +4°C° 0.2 mm 4 mps 751 mmHg 93%
    08:00 +4°C° 0.2 mm 4 mps 750 mmHg 92%
    09:00 +4°C° 0.2 mm 4 mps 749 mmHg 91%
    10:00 +5°C° 0.2 mm 4 mps 749 mmHg 90%
    11:00 +5°C° 0.7 mm 5 mps 748 mmHg 89%
    12:00 +5°C° 0.7 mm 5 mps 747 mmHg 87%
    13:00 +4°C° 0.7 mm 6 mps 745 mmHg 86%
    14:00 +5°C° 1 mm 5 mps 745 mmHg 85%
    15:00 +5°C° 1 mm 5 mps 744 mmHg 85%
    16:00 +5°C° 1 mm 5 mps 743 mmHg 84%
    17:00 +5°C° 0.3 mm 5 mps 743 mmHg 84%
    18:00 +5°C° 0.3 mm 5 mps 743 mmHg 83%
    19:00 +4°C° 0.3 mm 6 mps 742 mmHg 83%
    20:00 +3°C° 0.5 mm 5 mps 742 mmHg 85%
    21:00 +3°C° 0.5 mm 5 mps 741 mmHg 86%
    22:00 +4°C° 0.5 mm 4 mps 741 mmHg 88%
    23:00 +3°C° 0.5 mm 4 mps 741 mmHg 89%

    29 November, Wednesday

    Time Temperature Precipitation Wind Pressure Humidity
    00:00 +3°C° 0.5 mm 4 mps 741 mmHg 91%
    01:00 +3°C° 0.5 mm 4 mps 740 mmHg 92%
    02:00 +1°C° 0 mm 4 mps 741 mmHg 93%
    03:00 +1°C° 0 mm 4 mps 741 mmHg 94%
    04:00 +1°C° 0 mm 4 mps 741 mmHg 95%
    05:00 +3°C° 0 mm 4 mps 741 mmHg 93%
    06:00 +2°C° 0 mm 5 mps 742 mmHg 91%
    07:00 +3°C° 0 mm 6 mps 742 mmHg 88%
    08:00 +3°C° 0 mm 6 mps 743 mmHg 87%
    09:00 +3°C° 0 mm 6 mps 743 mmHg 86%
    10:00 +3°C° 0 mm 6 mps 744 mmHg 84%
    11:00 +4°C° 0 mm 6 mps 745 mmHg 81%
    12:00 +5°C° 0 mm 5 mps 745 mmHg 78%
    13:00 +5°C° 0 mm 5 mps 745 mmHg 75%
    14:00 +5°C° 0.1 mm 5 mps 746 mmHg 77%
    15:00 +4°C° 0.1 mm 4 mps 746 mmHg 78%
    16:00 +4°C° 0.1 mm 4 mps 747 mmHg 80%
    17:00 +3°C° 0.1 mm 4 mps 747 mmHg 81%
    18:00 +3°C° 0.1 mm 3 mps 747 mmHg 81%
    19:00 +3°C° 0.1 mm 3 mps 748 mmHg 82%
    20:00 +2°C° 0 mm 3 mps 748 mmHg 83%
    21:00 +1°C° 0 mm 3 mps 748 mmHg 83%
    22:00 +1°C° 0 mm 3 mps 748 mmHg 84%
    23:00 0°C° 0 mm 3 mps 748 mmHg 84%

    30 November, Thursday

    Time Temperature Precipitation Wind Pressure Humidity
    00:00 0°C° 0 mm 3 mps 748 mmHg 84%
    01:00 -1°C° 0 mm 4 mps 748 mmHg 84%
    02:00 -1°C° 0 mm 4 mps 748 mmHg 85%
    03:00 -1°C° 0 mm 4 mps 748 mmHg 86%
    04:00 -1°C° 0 mm 4 mps 748 mmHg 86%
    05:00 -1°C° 0 mm 4 mps 748 mmHg 87%
    06:00 -1°C° 0 mm 4 mps 748 mmHg 87%
    07:00 -1°C° 0 mm 4 mps 748 mmHg 87%
    08:00 0°C° 0.1 mm 4 mps 748 mmHg 85%
    09:00 0°C° 0.1 mm 5 mps 747 mmHg 84%
    10:00 +1°C° 0.1 mm 5 mps 747 mmHg 83%
    11:00 +1°C° 0.1 mm 5 mps 747 mmHg 80%
    12:00 +2°C° 0.1 mm 5 mps 747 mmHg 78%
    13:00 +2°C° 0.1 mm 6 mps 747 mmHg 76%
    14:00 +2°C° 0.1 mm 5 mps 747 mmHg 77%
    15:00 +1°C° 0.1 mm 5 mps 746 mmHg 78%
    16:00 +1°C° 0.1 mm 4 mps 746 mmHg 79%
    17:00 0°C° 0 mm 4 mps 746 mmHg 80%
    18:00 0°C° 0 mm 4 mps 747 mmHg 82%
    19:00 -1°C° 0 mm 4 mps 747 mmHg 83%
    20:00 -1°C° 0 mm 4 mps 747 mmHg 85%
    21:00 -1°C° 0 mm 4 mps 747 mmHg 86%
    22:00 -1°C° 0 mm 3 mps 747 mmHg 87%
    23:00 -1°C° 0 mm 3 mps 747 mmHg 88%
    Show more